La Grande, OR

6:51 AM PDT on October 17, 2019 (GMT -0700)
La Grande-Union County

Weather History for KLGD - August, 2019

Change the Weather History Date:

Wednesday, August 14, 2019

  Actual Average Record
Temperature  
Mean Temperature 69 °F -  
Max Temperature 88 °F 84 °F 104 °F (1992)
Min Temperature 51 °F 49 °F 42 °F (1970)
Cooling Degree Days 4    
Growing Degree Days 19 (Base 50)    
Moisture  
Dew Point 47 °F    
Average Humidity 48    
Maximum Humidity 83    
Minimum Humidity 23    
Precipitation  
Precipitation 0.00 in - - ()
Sea Level Pressure  
Sea Level Pressure 30.54 in    
Wind  
Wind Speed 4 mph (NW)    
Max Wind Speed 12 mph    
Max Gust Speed -    
Visibility 10 miles    
Events      
Averages and records for this station are not official NWS values.
T = Trace of Precipitation, MM = Missing Value Source: NWS Daily Summary

Daily Weather History Graph

Daily Weather History Graph

Search for Another Location

Airport or City:

Astronomy

Aug. 14, 2019 Rise Set
Actual Time 5:51 AM PDT 8:00 PM PDT
Civil Twilight 5:19 AM PDT 8:32 PM PDT
Nautical Twilight 4:39 AM PDT 9:12 PM PDT
Astronomical Twilight 3:55 AM PDT 9:56 PM PDT
Moon 8:00 PM PDT (8/14) 4:49 AM PDT (8/14)
Length of Visible Light 15h 13m
Length of Day
14h 09m
Full, 100% of the Moon is Illuminated
Aug 14
Full
Aug 15
Full
Aug 23
Last Quarter
Aug 30
New
Sep 5
First Quarter

Hourly Weather History & Observations

Time (PDT) Temp. Dew Point Humidity Pressure Visibility Wind Dir Wind Speed Gust Speed Precip Events Conditions
12:56 AM 63.0 °F 45.0 °F 52% 30.53 in 10.0 mi WNW 8.1 mph - N/A   Clear
1:56 AM 57.9 °F 46.0 °F 65% 30.53 in 10.0 mi WSW 3.5 mph - N/A   Clear
2:56 AM 57.0 °F 46.0 °F 67% 30.53 in 10.0 mi West 3.5 mph - N/A   Clear
3:56 AM 52.0 °F 45.0 °F 77% 30.55 in 10.0 mi Calm Calm - N/A   Clear
4:56 AM 51.1 °F 45.0 °F 80% 30.55 in 10.0 mi Calm Calm - N/A   Clear
5:56 AM 54.0 °F 44.1 °F 69% 30.56 in 10.0 mi Calm Calm - N/A   Clear
6:56 AM 52.0 °F 46.9 °F 83% 30.57 in 10.0 mi Calm Calm - N/A   Clear
7:56 AM 59.0 °F 45.0 °F 60% 30.58 in 10.0 mi Calm Calm - N/A   Clear
8:56 AM 64.0 °F 46.0 °F 52% 30.59 in 10.0 mi Variable 3.5 mph - N/A   Clear
9:56 AM 70.0 °F 46.9 °F 44% 30.58 in 10.0 mi Calm Calm - N/A   Clear
10:56 AM 77.0 °F 48.9 °F 37% 30.56 in 10.0 mi Variable 3.5 mph - N/A   Clear
11:56 AM 81.0 °F 46.9 °F 30% 30.55 in 10.0 mi Variable 6.9 mph - N/A   Clear
12:56 PM 82.9 °F 46.0 °F 27% 30.53 in 10.0 mi Variable 4.6 mph - N/A   Clear
1:56 PM 86.0 °F 46.0 °F 25% 30.52 in 10.0 mi Variable 6.9 mph - N/A   Clear
2:56 PM 87.1 °F 45.0 °F 23% 30.51 in 10.0 mi North 9.2 mph - N/A   Clear
3:56 PM 87.1 °F 45.0 °F 23% 30.50 in 10.0 mi NW 11.5 mph - N/A   Clear
4:56 PM 86.0 °F 46.0 °F 25% 30.49 in 10.0 mi NNW 11.5 mph - N/A   Clear
5:56 PM 84.0 °F 48.0 °F 28% 30.49 in 10.0 mi NNW 9.2 mph - N/A   Clear
6:56 PM 80.1 °F 50.0 °F 35% 30.50 in 10.0 mi North - - N/A   Clear
7:56 PM 75.9 °F 48.9 °F 38% 30.51 in 10.0 mi North - - N/A   Clear
8:56 PM 71.1 °F 50.0 °F 47% 30.53 in 10.0 mi NW 3.5 mph - N/A   Clear
9:56 PM 70.0 °F 48.9 °F 47% 30.54 in 10.0 mi NW 5.8 mph - N/A   Clear
10:56 PM 64.9 °F 50.0 °F 58% 30.54 in 10.0 mi WNW 5.8 mph - N/A   Clear
11:56 PM 64.0 °F 50.0 °F 60% 30.54 in 10.0 mi Calm Calm - N/A   Clear